Flag for Saudi Arabia Weather past 2 weeks in Medina, Saudi Arabia

Now
104 °F

Clear.


Feels Like: 98 °F
Forecast: 76 / 112 °F
Wind: 16 mph from Northwest

Location: Madinah

Current Time: Sep 3, 2015 at 10:27:22 PM

Latest Report: Sep 3, 2015 at 10:00 PM


Visibility: 10 mi

Pressure: 29.83 "Hg (27.92 "Hg at 606m altitude)

Humidity: 7%

Dew point: 30 °F

Location of MedinaLocation

Historic Weather in Medina — Graph

°F

Medina temperature yesterday

Maximum temperature yesterday: 113 °F (at 4:00 PM)
Minimum temperature yesterday: 90 °F (at 6:00 AM)
Average temperature yesterday: 102 °F

Past Weeks' High & Low Weather Summary

 TemperatureHumidityPressure
High115 °F (Aug 20, 2:00 PM)41% (Aug 26, 8:00 AM)29.92 "Hg (Aug 26, 8:00 AM)
Low86 °F (Aug 28, 6:00 AM)1% (Aug 20, 2:00 PM)29.71 "Hg (Aug 22, 4:00 PM)
Average102 °F12%29.83 "Hg
* Reported Aug 19 9:00 PM — Sep 3 9:00 PM, Medina, Weather by CustomWeather, © 2015

Note: Actual official high and low records may vary slightly from our data, if they occured in-between our weather recording intervals... More about our weather records

Advertising

Medina weather history for previous 24 hours

 ConditionsComfort  
Time TempWeatherWind HumidityBarometerVisibility
9:00 PM
Thu, Sep 3
106 °FClear.14 mph8%29.80 "Hg10 mi
8:00 PM108 °FClear.9 mph3%29.80 "Hg10 mi
7:00 PM109 °FClear.9 mph3%29.77 "Hg10 mi
6:00 PM111 °FSunny.12 mph3%29.77 "Hg10 mi
5:00 PM111 °FSunny.12 mph3%29.77 "Hg10 mi
4:00 PM111 °FSunny.5 mph3%29.77 "Hg10 mi
3:00 PM111 °FSunny.5 mph3%29.80 "Hg5 mi
2:00 PM111 °FSunny.9 mph3%29.80 "Hg4 mi
1:00 PM109 °FSunny.9 mph4%29.83 "Hg4 mi
12:00 PM106 °FSunny.5 mph5%29.86 "Hg4 mi
11:00 AM104 °FSunny.5 mph5%29.89 "Hg5 mi
9:00 AM97 °FSunny.10 mph7%29.89 "Hg6 mi
8:00 AM93 °FSunny.No wind8%29.89 "Hg10 mi
7:00 AM90 °FSunny.6 mph6%29.89 "Hg10 mi
6:00 AM90 °FClear.6 mph6%29.86 "Hg10 mi
5:00 AM93 °FClear.6 mph5%29.86 "Hg10 mi
4:00 AM95 °FClear.No wind7%29.83 "Hg10 mi
3:00 AM99 °FClear.5 mph7%29.83 "Hg10 mi
2:00 AM97 °FClear.No wind9%29.86 "Hg10 mi
1:00 AM99 °FClear.No wind10%29.86 "Hg10 mi
12:00 AM100 °FClear.6 mph8%29.86 "Hg10 mi
11:00 PM
Wed, Sep 2
102 °FClear.10 mph7%29.86 "Hg10 mi
10:00 PM104 °FClear.20 mph7%29.86 "Hg6 mi
Weather by CustomWeather, © 2015

See weather overviewHow to use our weather pages